Latest Weather Observations for Sydney Olympic Park

IDN60801

Issued at 9:03 pm EDT Sunday 25 January 2015 (issued every 30 minutes, with the page automatically refreshed every 10 minutes)

About weather observations | Map of weather stations | Latest weather observations for NSW | Other Formats
Station Details ID: 066212 Name: SYDNEY OLYMPIC PARK AWS (ARCHERY CENTRE) Lat: -33.83 Lon: 151.07 Height: 4.0 m
Data from the previous 72 hours. | See also: Recent months at Sydney Olympic Park
Date/Time
EDT
Temp
°C
App
Temp
°C
Dew
Point
Rel
Hum
%
Delta-T
°C
Wind Press
QNH
hPa
Press
MSL
hPa
Rain
since 9 am
mm
Dir
 
Spd
km/h
Gust
km/h
Spd
kts
Gust
kts
25/08:30pm 23.4 22.9 20.0 81 2.2 SSE 22 39 12 21 - - 0.0
25/08:02pm 23.7 22.1 20.0 80 2.4 SSE 28 46 15 25 - - 0.0
25/08:00pm 23.7 21.7 20.0 80 2.4 SSE 30 46 16 25 - - 0.0
25/07:38pm 24.5 22.9 20.0 76 2.9 SSE 28 46 15 25 - - 0.0
25/07:30pm 24.8 22.6 19.6 73 3.3 SSE 30 46 16 25 - - 0.0
25/07:24pm 25.7 23.9 19.6 69 3.9 SSE 28 46 15 25 - - 0.0
25/07:16pm 26.7 24.8 19.3 64 4.8 SSE 28 43 15 23 - - 0.0
25/07:00pm 31.1 31.2 19.1 48 7.8 ESE 17 20 9 11 - - 0.0
25/06:30pm 32.3 32.9 18.5 44 8.9 ESE 13 20 7 11 - - 0.0
25/06:00pm 32.5 32.8 18.7 44 9.0 E 15 24 8 13 - - 0.0
25/05:30pm 32.5 32.8 18.7 44 9.0 ESE 15 20 8 11 - - 0.0
25/05:00pm 32.0 33.5 20.6 51 7.6 ESE 13 20 7 11 - - 0.0
25/04:30pm 32.2 33.7 18.8 45 8.7 SE 9 20 5 11 - - 0.0
25/04:00pm 35.0 35.2 16.8 34 11.6 SSW 11 20 6 11 - - 0.0
25/03:30pm 35.2 36.6 20.3 41 10.0 WSW 13 22 7 12 - - 0.0
25/03:00pm 35.6 35.9 18.7 37 11.1 NW 15 26 8 14 - - 0.0
25/02:30pm 35.3 36.2 17.5 34 11.5 NNW 9 19 5 10 - - 0.0
25/02:00pm 35.1 35.9 19.1 39 10.5 WNW 13 20 7 11 - - 0.0
25/01:30pm 34.3 35.0 18.8 40 10.2 WNW 13 19 7 10 - - 0.0
25/01:00pm 33.6 34.2 18.5 40 9.8 WNW 13 24 7 13 - - 0.0
25/12:30pm 33.4 36.4 21.2 48 8.2 NW 7 20 4 11 - - 0.0
25/12:00pm 32.3 34.9 20.5 49 7.9 WNW 7 20 4 11 - - 0.0
25/11:30am 31.1 31.9 19.8 51 7.4 NW 15 24 8 13 - - 0.0
25/11:00am 30.1 32.0 19.8 54 6.8 WSW 9 15 5 8 - - 0.0
25/10:30am 29.4 32.9 21.1 61 5.5 SW 4 9 2 5 - - 0.0
25/10:00am 27.9 32.5 21.7 69 4.2 CALM 0 6 0 3 - - 0.0
25/09:30am 26.7 31.9 22.8 79 2.6 CALM 0 6 0 3 - - 0.0
25/08:30am 23.3 28.2 22.3 94 0.7 CALM 0 2 0 1 - - 9.2
25/08:00am 22.1 26.7 21.8 98 0.2 CALM 0 0 0 0 - - 9.2
25/07:30am 21.8 26.3 21.5 98 0.2 CALM 0 0 0 0 - - 9.2
25/07:00am 21.6 26.0 21.3 98 0.2 CALM 0 0 0 0 - - 9.2
25/06:30am 20.8 24.8 20.5 98 0.2 CALM 0 0 0 0 - - 9.2
25/06:00am 20.9 24.9 20.6 98 0.2 CALM 0 0 0 0 - - 9.2
25/05:30am 21.2 25.4 20.9 98 0.2 CALM 0 0 0 0 - - 9.2
25/05:00am 21.2 24.6 20.9 98 0.2 W 4 7 2 4 - - 9.2
25/04:30am 21.1 25.2 20.8 98 0.2 CALM 0 0 0 0 - - 9.2
25/04:09am 21.1 25.2 20.8 98 0.2 CALM 0 0 0 0 - - 9.2
25/04:00am 21.4 25.7 21.1 98 0.2 CALM 0 0 0 0 - - 9.2
25/03:48am 21.5 25.8 21.2 98 0.2 CALM 0 0 0 0 - - 9.2
25/03:30am 21.4 25.7 21.1 98 0.2 CALM 0 0 0 0 - - 9.2
25/03:00am 21.4 25.7 21.1 98 0.2 CALM 0 0 0 0 - - 9.2
25/02:30am 21.8 25.1 21.5 98 0.2 NNW 6 7 3 4 - - 9.2
25/02:00am 22.2 25.7 21.9 98 0.2 NW 6 9 3 5 - - 9.2
25/01:30am 22.5 27.0 22.2 98 0.2 WNW 2 7 1 4 - - 9.2
25/01:00am 23.1 27.5 22.8 98 0.2 NW 4 11 2 6 - - 9.2
25/12:30am 23.1 26.9 22.8 98 0.2 NW 7 9 4 5 - - 9.2
25/12:00am 23.1 27.1 22.8 98 0.2 N 6 9 3 5 - - 9.2
 
Date/Time
EDT
Temp
°C
App
Temp
°C
Dew
Point
Rel
Hum
%
Delta-T
°C
Wind Press
QNH
hPa
Press
MSL
hPa
Rain
since 9 am
mm
Dir
 
Spd
km/h
Gust
km/h
Spd
kts
Gust
kts
24/11:30pm 23.0 26.4 22.7 98 0.2 NE 9 13 5 7 - - 9.0
24/11:00pm 22.5 26.6 22.2 98 0.2 E 4 13 2 7 - - 9.0
24/10:57pm 22.6 26.3 22.3 98 0.2 ESE 6 9 3 5 - - 9.0
24/10:30pm 22.7 26.3 22.4 98 0.2 NNW 7 11 4 6 - - 8.6
24/10:04pm 23.7 26.2 21.8 89 1.3 NNW 11 17 6 9 - - 0.4
24/10:00pm 23.8 25.8 21.5 87 1.5 NNW 13 17 7 9 - - 0.0
24/09:30pm 25.3 28.3 21.2 78 2.7 N 7 9 4 5 - - 0.0
24/09:00pm 25.7 28.5 20.9 75 3.2 NE 7 13 4 7 - - 0.0
24/08:30pm 25.9 28.9 20.9 74 3.3 ENE 6 9 3 5 - - 0.0
24/08:00pm 25.8 28.1 20.6 73 3.4 N 9 19 5 10 - - 0.0
24/07:30pm 26.0 27.8 20.3 71 3.7 NE 11 19 6 10 - - 0.0
24/07:00pm 26.4 27.8 20.3 69 4.0 NE 13 22 7 12 - - 0.0
24/06:30pm 26.6 27.7 20.4 69 4.1 NE 15 26 8 14 - - 0.0
24/06:00pm 27.2 28.2 19.5 62 5.0 NE 13 28 7 15 - - 0.0
24/05:30pm 27.7 28.0 19.5 61 5.3 NE 17 30 9 16 - - 0.0
24/05:00pm 28.0 28.0 19.0 58 5.8 E 17 30 9 16 - - 0.0
24/04:30pm 28.5 28.6 19.1 56 6.1 E 17 30 9 16 - - 0.0
24/04:00pm 29.6 29.2 18.1 50 7.4 E 17 30 9 16 - - 0.0
24/03:30pm 30.7 30.5 19.4 51 7.4 E 19 28 10 15 - - 0.0
24/03:00pm 30.5 30.1 20.1 53 6.9 E 22 33 12 18 - - 0.0
24/02:30pm 30.7 30.8 20.0 52 7.1 E 19 26 10 14 - - 0.0
24/02:00pm 31.0 31.5 20.0 52 7.3 E 17 26 9 14 - - 0.0
24/01:30pm 30.8 31.2 19.8 52 7.2 E 17 26 9 14 - - 0.0
24/01:00pm 31.4 33.3 21.3 55 6.8 E 13 24 7 13 - - 0.0
24/12:30pm 30.4 33.0 21.2 58 6.2 E 9 17 5 9 - - 0.0
24/12:00pm 31.1 34.2 22.1 58 6.1 ESE 9 15 5 8 - - 0.0
24/11:30am 30.2 33.0 21.6 60 5.8 E 9 17 5 9 - - 0.0
24/11:00am 29.2 31.6 20.9 61 5.5 E 9 17 5 9 - - 0.0
24/10:30am 29.0 32.2 21.7 64 4.9 ENE 7 17 4 9 - - 0.0
24/10:00am 28.4 32.1 22.2 69 4.2 ESE 6 11 3 6 - - 0.0
24/09:30am 27.8 31.9 22.3 72 3.7 NW 4 9 2 5 - - 0.0
24/09:00am 26.9 31.0 22.3 76 3.1 NW 4 9 2 5 - - 0.0
24/08:30am 25.9 30.0 22.2 80 2.5 NNW 4 9 2 5 - - 0.0
24/08:00am 24.6 28.5 21.1 81 2.3 N 2 9 1 5 - - 0.0
24/07:30am 23.5 27.8 21.2 87 1.5 CALM 0 0 0 0 - - 0.0
24/07:00am 23.1 26.8 21.4 90 1.1 NNE 4 9 2 5 - - 0.0
24/06:30am 22.8 26.2 21.6 93 0.8 ENE 6 11 3 6 - - 0.0
24/06:00am 22.8 26.0 21.6 93 0.8 E 7 11 4 6 - - 0.0
24/05:30am 22.8 26.0 21.6 93 0.8 E 7 11 4 6 - - 0.0
24/05:00am 22.6 26.0 21.6 94 0.7 E 6 9 3 5 - - 0.0
24/04:30am 22.6 25.6 21.2 92 0.9 ESE 7 9 4 5 - - 0.0
24/04:00am 23.2 27.0 21.6 91 1.1 ENE 4 9 2 5 - - 0.0
24/03:30am 23.3 27.8 21.6 90 1.1 CALM 0 0 0 0 - - 0.0
24/03:00am 23.6 27.4 21.7 89 1.3 NE 4 11 2 6 - - 0.0
24/02:30am 23.7 26.9 21.6 88 1.4 ENE 7 13 4 7 - - 0.0
24/02:00am 24.0 27.2 21.7 87 1.5 E 7 13 4 7 - - 0.0
24/01:30am 24.5 28.0 21.8 85 1.8 ENE 6 13 3 7 - - 0.0
24/01:00am 24.6 27.8 21.7 84 1.9 ENE 7 11 4 6 - - 0.0
24/12:30am 24.8 28.0 21.7 83 2.1 ENE 7 13 4 7 - - 0.0
24/12:00am 25.0 28.2 21.7 82 2.2 ENE 7 13 4 7 - - 0.0
 
Date/Time
EDT
Temp
°C
App
Temp
°C
Dew
Point
Rel
Hum
%
Delta-T
°C
Wind Press
QNH
hPa
Press
MSL
hPa
Rain
since 9 am
mm
Dir
 
Spd
km/h
Gust
km/h
Spd
kts
Gust
kts
23/11:30pm 25.1 28.3 21.6 81 2.3 ENE 7 11 4 6 - - 0.0
23/11:00pm 25.1 29.2 21.6 81 2.3 NNE 2 6 1 3 - - 0.0
23/10:30pm 25.2 28.5 21.5 80 2.5 NE 6 11 3 6 - - 0.0
23/10:00pm 25.5 28.9 21.6 79 2.6 NE 6 11 3 6 - - 0.0
23/09:30pm 25.5 28.3 21.6 79 2.6 ENE 9 15 5 8 - - 0.0
23/09:00pm 25.5 27.9 21.6 79 2.6 NE 11 19 6 10 - - 0.0
23/08:30pm 25.8 28.6 21.5 77 2.9 NE 9 20 5 11 - - 0.0
23/08:00pm 26.0 29.2 21.2 75 3.2 NE 6 9 3 5 - - 0.0
23/07:30pm 26.2 27.8 21.4 75 3.2 NE 15 24 8 13 - - 0.0
23/07:00pm 26.8 28.7 21.3 72 3.7 NE 13 28 7 15 - - 0.0
23/06:30pm 27.5 28.6 21.3 69 4.1 NE 17 26 9 14 - - 0.0
23/06:00pm 28.4 29.7 20.9 64 5.0 NE 15 32 8 17 - - 0.0
23/05:30pm 29.3 30.1 20.7 59 5.7 NE 17 30 9 16 - - 0.0
23/05:00pm 30.1 31.7 21.5 60 5.8 NE 15 28 8 15 - - 0.0
23/04:30pm 30.0 30.6 21.4 60 5.8 NE 20 32 11 17 - - 0.0
23/04:00pm 30.3 31.1 21.7 60 5.8 NE 20 32 11 17 - - 0.0
23/03:30pm 30.7 32.5 22.6 62 5.5 E 17 30 9 16 - - 0.0
23/03:00pm 30.9 32.7 22.5 61 5.7 E 17 28 9 15 - - 0.0
23/02:30pm 30.6 31.7 21.9 59 5.9 E 19 32 10 17 - - 0.0
23/02:00pm 30.8 32.5 22.4 61 5.7 ENE 17 30 9 16 - - 0.0
23/01:30pm 30.6 32.9 22.7 62 5.4 ENE 15 28 8 15 - - 0.0
23/01:00pm 30.7 33.3 22.6 62 5.5 NE 13 22 7 12 - - 0.0
23/12:30pm 29.8 32.9 22.8 66 4.8 ESE 11 20 6 11 - - 0.0
23/12:00pm 30.2 33.4 22.4 63 5.3 E 9 17 5 9 - - 0.0
23/11:30am 29.7 32.2 21.1 60 5.7 ESE 9 15 5 8 - - 0.0
23/11:00am 28.4 30.8 20.1 60 5.4 E 7 11 4 6 - - 0.0
23/10:30am 28.2 31.0 21.5 67 4.5 E 9 15 5 8 - - 0.0
23/10:00am 27.0 29.4 20.1 66 4.5 ENE 7 11 4 6 - - 0.0
23/09:30am 26.7 29.3 21.2 72 3.6 NE 9 15 5 8 - - 0.0
23/09:00am 25.2 26.7 20.5 75 3.1 N 13 19 7 10 - - 0.0
23/08:30am 25.4 28.5 21.5 79 2.6 N 7 11 4 6 - - 0.0
23/08:00am 24.6 27.8 21.7 84 1.9 N 7 9 4 5 - - 0.0
23/07:30am 23.2 26.2 21.3 89 1.2 NNE 7 15 4 8 - - 0.0
23/07:00am 22.6 26.1 21.8 95 0.5 NNE 6 9 3 5 - - 0.0
23/06:30am 21.7 25.0 21.4 98 0.2 NNE 6 7 3 4 - - 0.0
23/06:00am 21.2 25.4 20.9 98 0.2 CALM 0 0 0 0 - - 0.0
23/05:30am 21.3 25.5 21.0 98 0.2 CALM 0 0 0 0 - - 0.0
23/05:00am 21.3 25.5 21.0 98 0.2 CALM 0 0 0 0 - - 0.0
23/04:30am 21.5 25.7 21.0 97 0.3 CALM 0 0 0 0 - - 0.0
23/04:00am 21.7 25.9 21.0 96 0.5 CALM 0 0 0 0 - - 0.0
23/03:30am 22.2 26.7 21.5 96 0.5 CALM 0 0 0 0 - - 0.0
23/03:00am 22.2 26.6 21.4 95 0.5 CALM 0 0 0 0 - - 0.0
23/02:30am 22.5 27.1 21.7 95 0.5 CALM 0 0 0 0 - - 0.0
23/02:00am 22.6 27.2 21.8 95 0.5 CALM 0 0 0 0 - - 0.0
23/01:30am 22.5 26.9 21.3 93 0.8 CALM 0 0 0 0 - - 0.0
23/01:00am 22.7 27.1 21.3 92 0.9 CALM 0 2 0 1 - - 0.0
23/12:30am 22.8 26.7 21.1 90 1.1 E 2 7 1 4 - - 0.0
23/12:00am 23.2 26.3 21.1 88 1.4 NE 6 11 3 6 - - 0.0
 
Date/Time
EDT
Temp
°C
App
Temp
°C
Dew
Point
Rel
Hum
%
Delta-T
°C
Wind Press
QNH
hPa
Press
MSL
hPa
Rain
since 9 am
mm
Dir
 
Spd
km/h
Gust
km/h
Spd
kts
Gust
kts
22/11:30pm 23.3 26.4 21.0 87 1.5 NNE 6 9 3 5 - - 0.0
22/11:00pm 23.5 26.4 21.0 86 1.6 ENE 7 11 4 6 - - 0.0
22/10:30pm 23.8 26.2 20.9 84 1.9 NE 9 15 5 8 - - 0.0
22/10:00pm 24.0 26.3 20.7 82 2.2 NE 9 15 5 8 - - 0.0
22/09:30pm 23.9 26.8 21.0 84 1.9 E 7 13 4 7 - - 0.0

Other Formats:

Comma delimited format used in spreadsheet applications
http://www.bom.gov.au/fwo/IDN60801/IDN60801.95765.axf

JavaScript Object Notation format (JSON) in row-major order
http://www.bom.gov.au/fwo/IDN60801/IDN60801.95765.json